Date String (YYYY-MM-DD hh:mm:ss) UTC,Instrument flags,Ambient pressure (hPa),Sample flow (lpm),Bypass flow (lpm),Sample temperature (°C),Ambient temperature (°C),ASC tube jacket temperature (°C),LED temperature (°C),Box temperature (°C),Sample RH (%),Span deviation,Mass concentration (μg/m³),Mass concentration (μg/m³),Mass concentration (μg/m³)
DateTimeUTC,F1_M11,P_M11,Q1_M11,Q2_M11,T1_M11,T2_M11,T3_M11,T4_M11,T5_M11,U1_M11,ZSPAN_M11,X0_M11,X2_M11,X1_M11
2022-10-14 03:00:00,,0827.9,5.00,0.00,29.7,28.0,00.0,38.6,31.5,12.3,0000.0,0014.09,0006.22,0005.54
2022-10-14 03:01:00,,0827.9,5.00,0.00,29.7,28.1,00.0,38.6,31.5,12.3,0000.0,0013.28,0006.19,0005.50
2022-10-14 03:02:00,,0827.9,5.00,0.00,29.7,28.0,00.0,38.6,31.5,12.2,0000.0,0013.33,0006.21,0005.48
2022-10-14 03:03:00,,0827.9,4.99,0.00,29.7,28.0,00.0,38.6,31.5,12.2,0000.0,0012.71,0006.22,0005.46
2022-10-14 03:04:00,,0827.9,5.00,0.00,29.7,28.1,00.0,38.6,31.5,12.2,0000.0,0013.22,0006.27,0005.45
2022-10-14 03:05:00,,0827.9,5.00,0.00,29.7,28.1,00.0,38.6,31.5,12.2,0000.0,0013.52,0006.28,0005.44
2022-10-14 03:06:00,,0827.9,5.00,0.00,29.7,28.1,00.0,38.6,31.5,12.3,0000.0,0013.52,0006.31,0005.45
2022-10-14 03:07:00,,0827.9,5.00,0.00,29.7,28.1,00.0,38.6,31.5,12.4,0000.0,0013.34,0006.34,0005.46
2022-10-14 03:08:00,,0827.9,5.00,0.00,29.7,28.1,00.0,38.6,31.5,12.3,0000.0,0013.24,0006.38,0005.45
2022-10-14 03:09:00,,0827.9,5.00,0.00,29.7,28.1,00.0,38.6,31.5,12.2,0000.0,0014.12,0006.36,0005.44
2022-10-14 03:10:00,,0827.9,5.00,0.00,29.7,28.1,00.0,38.6,31.5,12.2,0000.0,0014.62,0006.35,0005.43
2022-10-14 03:11:00,,0827.8,5.02,0.00,29.7,28.1,00.0,38.6,31.5,12.2,0000.0,0014.18,0006.35,0005.40
2022-10-14 03:12:00,,0827.8,5.00,0.00,29.7,28.1,00.0,38.6,31.5,12.3,0000.0,0014.02,0006.34,0005.40
2022-10-14 03:13:00,,0827.8,5.00,0.00,29.7,28.0,00.0,38.6,31.5,12.3,0000.0,0013.47,0006.30,0005.40
2022-10-14 03:14:00,,0827.9,5.00,0.00,29.7,28.0,00.0,38.6,31.4,12.2,0000.0,0013.05,0006.26,0005.39
2022-10-14 03:15:00,,0827.9,4.99,0.00,29.7,28.0,00.0,38.5,31.4,12.0,0000.0,0012.65,0006.24,0005.39
2022-10-14 03:16:00,,0827.9,5.02,0.00,29.7,28.0,00.0,38.5,31.4,11.9,0000.0,0012.41,0006.21,0005.38
2022-10-14 03:17:00,,0827.9,5.00,0.00,29.7,28.0,00.0,38.5,31.4,11.9,0000.0,0012.38,0006.13,0005.33
2022-10-14 03:18:00,,0827.9,5.00,0.00,29.7,27.9,00.0,38.5,31.4,11.9,0000.0,0012.75,0006.07,0005.30
2022-10-14 03:19:00,,0827.8,5.00,0.00,29.6,27.9,00.0,38.5,31.4,12.0,0000.0,0012.60,0006.01,0005.28
2022-10-14 03:20:00,,0827.9,5.00,0.00,29.6,27.9,00.0,38.5,31.4,11.9,0000.0,0011.73,0005.99,0005.27
2022-10-14 03:21:00,,0827.9,5.00,0.00,29.6,27.9,00.0,38.5,31.4,11.8,0000.0,0011.32,0005.99,0005.27
2022-10-14 03:22:00,,0827.9,5.00,0.00,29.6,27.9,00.0,38.5,31.4,11.9,0000.0,0011.17,0005.94,0005.26
2022-10-14 03:23:00,,0827.9,5.00,0.00,29.6,27.9,00.0,38.5,31.4,11.8,0000.0,0010.89,0005.91,0005.25
2022-10-14 03:24:00,,0827.9,5.00,0.00,29.6,27.9,00.0,38.5,31.4,11.8,0000.0,0011.16,0005.88,0005.22
2022-10-14 03:25:00,,0827.9,4.99,0.00,29.6,27.9,00.0,38.5,31.4,11.9,0000.0,0011.75,0005.88,0005.21
2022-10-14 03:26:00,,0827.9,5.00,0.00,29.6,27.9,00.0,38.5,31.4,11.9,0000.0,0011.81,0005.84,0005.19
2022-10-14 03:27:00,,0827.9,5.00,0.00,29.6,27.9,00.0,38.5,31.4,11.9,0000.0,0011.33,0005.77,0005.16
2022-10-14 03:28:00,,0827.9,5.00,0.00,29.6,27.9,00.0,38.5,31.3,11.9,0000.0,0010.96,0005.76,0005.16
2022-10-14 03:29:00,,0827.9,5.00,0.00,29.6,27.9,00.0,38.5,31.3,11.9,0000.0,0010.53,0005.78,0005.14
2022-10-14 03:30:00,,0827.9,5.00,0.00,29.6,27.9,00.0,38.5,31.3,11.9,0000.0,0010.59,0005.77,0005.12
2022-10-14 03:31:00,,0827.9,5.00,0.00,29.5,27.8,00.0,38.5,31.3,11.8,0000.0,0010.70,0005.74,0005.10
2022-10-14 03:32:00,,0827.9,5.01,0.00,29.5,27.8,00.0,38.4,31.3,11.8,0000.0,0010.70,0005.73,0005.09
2022-10-14 03:33:00,,0827.9,5.00,0.00,29.5,27.8,00.0,38.4,31.3,11.8,0000.0,0010.60,0005.70,0005.08
2022-10-14 03:34:00,,0827.9,5.00,0.00,29.5,27.8,00.0,38.4,31.2,11.9,0000.0,0010.72,0005.70,0005.08
2022-10-14 03:35:00,,0827.9,5.00,0.00,29.5,27.8,00.0,38.4,31.2,11.8,0000.0,0010.33,0005.68,0005.08
2022-10-14 03:36:00,,0827.9,5.00,0.00,29.5,27.8,00.0,38.4,31.3,11.8,0000.0,0010.34,0005.64,0005.08
2022-10-14 03:37:00,,0827.9,5.00,0.00,29.5,27.8,00.0,38.4,31.3,11.7,0000.0,0010.48,0005.62,0005.08
2022-10-14 03:38:00,,0827.9,5.00,0.00,29.5,27.8,00.0,38.4,31.3,11.7,0000.0,0010.51,0005.64,0005.08
2022-10-14 03:39:00,,0827.9,5.00,0.00,29.5,27.8,00.0,38.4,31.3,11.6,0000.0,0010.52,0005.60,0005.08
2022-10-14 03:40:00,,0827.9,5.00,0.00,29.5,27.8,00.0,38.4,31.3,11.6,0000.0,0010.40,0005.53,0005.07
2022-10-14 03:41:00,,0827.9,5.01,0.00,29.5,27.7,00.0,38.4,31.2,11.6,0000.0,0010.31,0005.52,0005.06
2022-10-14 03:42:00,,0827.9,5.00,0.00,29.5,27.7,00.0,38.4,31.2,11.6,0000.0,0010.15,0005.54,0005.06
2022-10-14 03:43:00,,0827.9,5.00,0.00,29.4,27.7,00.0,38.4,31.2,11.6,0000.0,0010.04,0005.52,0005.06
2022-10-14 03:44:00,,0827.9,5.00,0.00,29.4,27.7,00.0,38.4,31.2,11.6,0000.0,0010.22,0005.54,0005.05
2022-10-14 03:45:00,,0827.9,5.00,0.00,29.4,27.7,00.0,38.4,31.1,11.6,0000.0,0010.14,0005.48,0005.01
2022-10-14 03:46:00,,0828.0,5.00,0.00,29.4,27.7,00.0,38.3,31.2,11.6,0000.0,0010.11,0005.47,0005.00
2022-10-14 03:47:00,,0828.0,5.00,0.00,29.4,27.7,00.0,38.3,31.2,11.7,0000.0,0009.45,0005.46,0004.98
2022-10-14 03:48:00,,0828.0,5.00,0.00,29.4,27.7,00.0,38.3,31.2,11.8,0000.0,0009.44,0005.45,0004.97
2022-10-14 03:49:00,,0828.0,5.00,0.00,29.4,27.7,00.0,38.3,31.2,11.9,0000.0,0009.76,0005.45,0004.95
2022-10-14 03:50:00,,0828.0,5.00,0.00,29.4,27.7,00.0,38.3,31.2,11.8,0000.0,0009.74,0005.46,0004.94
2022-10-14 03:51:00,,0828.0,5.00,0.00,29.4,27.7,00.0,38.3,31.2,11.7,0000.0,0009.86,0005.51,0004.94
2022-10-14 03:52:00,,0828.0,5.00,0.00,29.4,27.7,00.0,38.3,31.2,11.7,0000.0,0010.65,0005.54,0004.93
2022-10-14 03:53:00,,0828.0,5.00,0.00,29.4,27.7,00.0,38.3,31.2,11.7,0000.0,0010.75,0005.54,0004.92
2022-10-14 03:54:00,,0828.1,5.00,0.00,29.4,27.7,00.0,38.3,31.2,11.7,0000.0,0010.98,0005.52,0004.90
2022-10-14 03:55:00,,0828.1,5.00,0.00,29.4,27.7,00.0,38.3,31.1,11.9,0000.0,0011.01,0005.50,0004.88
2022-10-14 03:56:00,,0828.1,5.00,0.00,29.4,27.7,00.0,38.3,31.2,12.0,0000.0,0011.22,0005.52,0004.88
2022-10-14 03:57:00,,0828.1,5.00,0.00,29.4,27.7,00.0,38.3,31.2,12.1,0000.0,0011.42,0005.55,0004.88
2022-10-14 03:58:00,,0828.1,5.00,0.00,29.4,27.7,00.0,38.3,31.2,11.9,0000.0,0011.83,0005.54,0004.89
2022-10-14 03:59:00,,0828.1,5.00,0.00,29.4,27.7,00.0,38.3,31.2,11.8,0000.0,0012.81,0005.54,0004.90
